Regional Weather Roundup
Issued by NWS

Home | Current Version | Previous Version | Text Only | Print | Product List | Glossary Off
Versions: 1 2 3 4 5 6 7 8 9 10 11 12 13 14 15 16 17 18 19 20 21 22 23 24 25 26 27 28 29 30 31 32 33 34 35 36 37 38 39 40 41 42 43 44 45 46 47 48 49 50

000
ASUS45 KPSR 302100
RWRAZ

PRELIMINARY ARIZONA REGIONAL HOURLY WEATHER ROUNDUP
NATIONAL WEATHER SERVICE PHOENIX AZ
200 PM MST FRI JAN 30 2015

NOTE: FAIR INDICATES FEW OR NO CLOUDS BELOW 12,000 FEET WITH NO
SIGNIFICANT WEATHER AND/OR OBSTRUCTIONS TO VISIBILITY.

AZZ001>003-036-302200-
NORTHWEST ARIZONA

CITY           SKY/WX    TMP DP  RH WIND       PRES   REMARKS
KINGMAN        LGT RAIN  48  46  93 N7        29.85F FOG
$$

AZZ004>008-015-016-018-302200-
NORTH CENTRAL ARIZONA

CITY           SKY/WX    TMP DP  RH WIND       PRES   REMARKS
GRAND CANYON   CLOUDY    39  37  92 E14       29.92F WCI  31
PRESCOTT       HVY RAIN  47  45  93 SE13      29.88F VSB 1
FLAGSTAFF      NOT AVBL
PAYSON         LGT RAIN  43  43 100 VRB3      29.94F VSB 3/4
$$

AZZ009>014-017-302200-
NORTHEAST ARIZONA

CITY           SKY/WX    TMP DP  RH WIND       PRES   REMARKS
WINSLOW        NOT AVBL
SAINT JOHNS    CLOUDY    51  40  65 SE10      29.92F
WINDOW ROCK    FLURRIES  36  33  89 CALM      30.02F
$$

AZZ023-302200-
GREATER PHOENIX AREA

CITY           SKY/WX    TMP DP  RH WIND       PRES   REMARKS
PHOENIX        CLOUDY    58  57  97 E6        29.83F FOG
GLENDALE       LGT RAIN  57  57 100 VRB3      29.86F
LUKE AFB       LGT RAIN  58  56  92 SW7       29.83F
DEER VALLEY    LGT RAIN  56  55  97 SE6       29.84F FOG
SCOTTSDALE     LGT RAIN  56  54  93 SE5       29.87F FOG
CHANDLER       CLOUDY    59  59 100 E7        29.85F FOG
$$

AZZ027-028-302200-
SOUTHWEST MARICOPA COUNTY AND PINAL COUNTY

CITY           SKY/WX    TMP DP  RH WIND       PRES   REMARKS
CASA GRANDE    CLOUDY    59  55  88 CALM      29.85F
GILA BEND      MOCLDY    62  56  82 W7        29.84F
$$

AZZ503-504-507>509-302200-
SOUTHEAST ARIZONA

CITY           SKY/WX    TMP DP  RH WIND       PRES   REMARKS
TUCSON         CLOUDY    59  54  83 SE12      29.87F
DAVIS-MONTHAN  CLOUDY    57  56  95 E9        29.85F
RYAN FIELD       N/A     61  57  88 E6        29.87F
NOGALES        CLOUDY    56  52  86 SE7       29.89F
SIERRA VISTA   LGT RAIN  52  48  87 SE12      29.91F
SAFFORD        LGT RAIN  48  45  89 SE6       29.96F
$$

AZZ020-021-025-026-031-302200-
SOUTHWEST ARIZONA

CITY           SKY/WX    TMP DP  RH WIND       PRES   REMARKS
YUMA           PTSUNNY   67  53  61 W6        29.85F
$$

CAZ031-033-041-043-047-048-061-302200-
SOUTHERN CALIFORNIA

CITY           SKY/WX    TMP DP  RH WIND       PRES   REMARKS
DOWNTOWN L.A.  PTSUNNY   68  48  48 CALM      29.86F
L.A. AIRPORT   CLOUDY    66  50  56 SW9       29.86F
SAN DIEGO      CLOUDY    63  52  67 NW6       29.89F
BURBANK        PTSUNNY   65  49  56 E6        29.85F
ONTARIO        CLOUDY    66  47  50 W7        29.87F
RIVERSIDE      CLOUDY    66  45  46 CALM      29.87F
PALM SPRINGS   LGT RAIN  64  46  52 CALM      29.90F
EL CENTRO NAS  PTSUNNY   69  48  47 N8        29.85F
IMPERIAL       CLOUDY    67  51  56 N10       29.85F
BLYTHE         CLOUDY    66  52  60 VRB5      29.84F
$$

NVZ020-UTZ003-302200-
SOUTHERN NEVADA-UTAH

CITY           SKY/WX    TMP DP  RH WIND       PRES   REMARKS
LAS VEGAS      NOT AVBL
SALT LAKE CITY CLOUDY    43  35  73 W5        30.05F
$$

NMZ009-TXZ055-302200-
NEW MEXICO-WEST TEXAS

CITY           SKY/WX    TMP DP  RH WIND       PRES   REMARKS
ALBUQUERQUE    CLOUDY    34  33  96 N7        30.15F VSB 1/2 WCI  28
EL PASO        LGT RAIN  46  39  76 E12       30.10F
$$


........................KEY........................
SKY/WX - SKY CONDITION/WEATHER
TMP    - TEMPERATURE IN FAHRENHEIT
DP     - DEW POINT IN FAHRENHEIT
RH     - RELATIVE HUMIDITY IN PERCENT
WIND   - DIRECTION AND SPEED IN MILES PER HOUR (MPH)
VRB    - VARIABLE WIND DIRECTION
PRES   - MEAN SEA LEVEL PRESSURE IN INCHES OF MERCURY
         F - FALLING PRESSURE   R - RISING PRESSURE
         S - STEADY PRESSURE
VSB    - VISIBILITY IN MILES
HX     - HEAT INDEX IN FAHRENHEIT
WCI    - WIND CHILL INDEX IN FAHRENHEIT
TC     - TEMPERATURE IN CELSIUS WHICH IS ALSO KNOWN AS
         TEMPERATURE IN CENTIGRADE
AFB    - AIR FORCE BASE
         LUKE AFB IS LUKE AIR FORCE BASE
         DAVIS-MONTHAN IS DAVIS-MONTHAN AIR FORCE BASE
NAS    - NAVAL AIR STATION
         EL CENTRO NAS IS EL CENTRO NAVAL AIR STATION
N/A    - NOT AVAILABLE


USA.gov is the U.S. government's official web portal to all federal, state and local government web resources and services.